Nellis AFB, NV

9:54 AM PST on November 13, 2019 (GMT -0800)
Nellis Air Force Base

Weather History for KLSV - September, 2019

Change the Weather History Date:

Sunday, September 15, 2019

  Actual Average Record
Temperature  
Mean Temperature 85 °F -  
Max Temperature 98 °F 93 °F 107 °F (2000)
Min Temperature 72 °F 67 °F 59 °F (2005)
Cooling Degree Days 20    
Growing Degree Days 35 (Base 50)    
Moisture  
Dew Point 44 °F    
Average Humidity 22    
Maximum Humidity 46    
Minimum Humidity 12    
Precipitation  
Precipitation 0.00 in - - ()
Sea Level Pressure  
Sea Level Pressure 29.76 in    
Wind  
Wind Speed 6 mph (ESE)    
Max Wind Speed 21 mph    
Max Gust Speed 28 mph    
Visibility 10 miles    
Events      
Averages and records for this station are not official NWS values.
T = Trace of Precipitation, MM = Missing Value Source: NWS Daily Summary

Daily Weather History Graph

Daily Weather History Graph

Search for Another Location

Airport or City:

Astronomy

Sep. 15, 2019 Rise Set
Actual Time 6:22 AM PDT 6:47 PM PDT
Civil Twilight 5:56 AM PDT 7:13 PM PDT
Nautical Twilight 5:26 AM PDT 7:43 PM PDT
Astronomical Twilight 4:55 AM PDT 8:14 PM PDT
Moon 7:59 PM PDT (9/15) 7:35 AM PDT (9/15)
Length of Visible Light 13h 16m
Length of Day
12h 25m
Full, 98% of the Moon is Illuminated
Sep 15
Full
Sep 21
Last Quarter
Sep 28
New
Oct 5
First Quarter
Oct 13
Full

Hourly Weather History & Observations

Time (PDT) Temp. Dew Point Humidity Pressure Visibility Wind Dir Wind Speed Gust Speed Precip Events Conditions
12:58 AM 78.8 °F 22.5 °F 12% 29.78 in 10.0 mi NNE 2.3 mph - N/A   Clear
1:58 AM 79.3 °F 24.3 °F 13% 29.78 in 10.0 mi North 4.6 mph - N/A   Clear
2:58 AM 82.8 °F 35.6 °F 18% 29.77 in 10.0 mi NNW 3.5 mph - N/A   Clear
3:58 AM 75.0 °F 38.3 °F 26% 29.78 in 10.0 mi NE 3.5 mph - N/A   Clear
4:58 AM 75.9 °F 44.8 °F 33% 29.82 in 10.0 mi ENE 3.5 mph - N/A   Clear
5:58 AM 76.3 °F 51.4 °F 42% 29.83 in 10.0 mi North 2.3 mph - N/A   Clear
6:58 AM 72.9 °F 50.9 °F 46% 29.85 in 10.0 mi Calm Calm - N/A   Clear
7:58 AM 75.0 °F 48.4 °F 39% 29.94 in 10.0 mi Calm Calm - N/A   Clear
8:58 AM 84.0 °F 50.9 °F 32% 29.87 in 10.0 mi NNE 3.5 mph - N/A   Clear
9:58 AM 87.8 °F 51.6 °F 29% 29.87 in 10.0 mi East 3.5 mph - N/A   Clear
10:58 AM 91.2 °F 49.3 °F 24% 29.85 in 10.0 mi ESE 4.6 mph - N/A   Clear
11:58 AM 94.3 °F 48.4 °F 21% 29.83 in 10.0 mi ESE 6.9 mph 18.4 mph N/A   Clear
12:58 PM 95.9 °F 48.4 °F 20% 29.80 in 10.0 mi East 3.5 mph - N/A   Clear
1:48 PM 98.6 °F 48.2 °F 18% 29.76 in 10.0 mi East 12.7 mph 19.6 mph N/A   Clear
1:58 PM 97.7 °F 48.4 °F 19% 29.75 in 10.0 mi ENE 11.5 mph - N/A   Clear
2:58 PM 97.9 °F 47.1 °F 18% 29.79 in 10.0 mi East 10.4 mph 18.4 mph N/A   Clear
3:58 PM 97.9 °F 45.7 °F 17% 29.77 in 10.0 mi East 15.0 mph 25.3 mph N/A   Partly Cloudy
4:42 PM 96.8 °F 50.0 °F 20% 29.75 in 10.0 mi East 12.7 mph 23.0 mph N/A   Partly Cloudy
4:58 PM 97.5 °F 48.2 °F 19% 29.67 in 10.0 mi East 18.4 mph 25.3 mph N/A   Clear
5:58 PM 97.3 °F 40.1 °F 14% 29.66 in 10.0 mi SSE 17.3 mph 20.7 mph N/A   Clear
6:03 PM 96.8 °F 41.0 °F 15% 29.67 in 10.0 mi SSW 20.7 mph 27.6 mph N/A   Clear
6:58 PM 94.5 °F 41.4 °F 16% 29.67 in 10.0 mi SSW 9.2 mph - N/A   Clear
7:55 PM 91.6 °F 39.4 °F 16% 29.65 in 10.0 mi SW 8.1 mph - N/A   Clear
8:55 PM 89.2 °F 40.1 °F 18% 29.65 in 10.0 mi South 3.5 mph - N/A   Clear
9:55 PM 90.1 °F 43.9 °F 20% 29.65 in 10.0 mi South 8.1 mph - N/A   Clear
10:55 PM 89.6 °F 41.9 °F 19% 29.65 in 10.0 mi SSW 9.2 mph - N/A   Clear
11:55 PM 86.5 °F 36.3 °F 17% 29.66 in 10.0 mi South 4.6 mph - N/A   Mostly Cloudy